Total_Precipitation_Accumulation
3.12 3.40 3.23 3.06 3.06 3.04 3.33 3.65 3.68 3.24 2.88 2.67 2.47 2.38 2.33 2.29 2.39 2.21 2.19 2.21 1.99 1.83 1.69 1.58 1.52 1.49 1.59 1.74 1.98 2.23 2.44 2.62 2.77 2.91 3.11 3.36 3.63 3.90
3.00 3.16 3.13 3.05 3.23 3.21 3.32 3.60 3.83 3.74 3.10 2.82 2.70 2.39 2.43 2.03 2.20 2.07 2.05 2.04 1.82 1.69 1.60 1.56 1.54 1.52 1.50 1.52 1.61 1.75 1.94 2.11 2.24 2.34 2.39 2.44 2.55 2.74
2.55 2.65 2.65 2.91 3.11 3.07 3.23 3.40 3.66 3.93 3.46 3.13 3.15 2.87 2.83 2.54 2.29 2.08 1.84 1.80 1.67 1.64 1.50 1.44 1.42 1.42 1.45 1.42 1.40 1.47 1.59 1.71 1.83 1.97 2.16 2.26 2.28 2.33
2.42 2.52 2.39 2.62 2.77 2.84 3.04 3.20 3.47 3.92 3.74 3.40 3.29 3.17 3.05 2.81 2.58 2.32 1.86 1.62 1.63 1.73 1.56 1.42 1.36 1.34 1.35 1.34 1.29 1.26 1.28 1.34 1.41 1.54 1.74 1.92 2.04 2.17
2.24 2.17 2.11 2.32 2.39 2.60 2.78 2.80 3.01 3.44 3.53 3.19 3.03 3.26 3.12 2.91 2.94 2.56 2.24 2.15 1.66 1.66 1.57 1.39 1.32 1.25 1.25 1.30 1.30 1.22 1.18 1.19 1.22 1.33 1.54 1.73 1.86 1.93
1.97 1.87 1.91 2.09 2.10 2.27 2.35 2.56 2.78 2.91 3.14 3.07 2.94 3.05 3.06 2.98 3.15 2.92 2.72 2.54 2.15 1.74 1.73 1.49 1.35 1.28 1.23 1.21 1.23 1.25 1.28 1.27 1.27 1.33 1.39 1.50 1.68 1.79
1.72 1.60 1.55 1.57 1.67 1.86 1.83 2.11 2.42 2.54 2.63 2.77 2.77 2.87 3.08 3.22 3.07 3.06 2.90 2.73 2.51 2.25 2.19 1.77 1.45 1.26 1.22 1.22 1.25 1.31 1.36 1.39 1.41 1.48 1.56 1.62 1.68 1.76
1.69 1.67 1.50 1.40 1.42 1.50 1.53 1.61 1.85 2.01 2.22 2.49 2.56 2.63 2.86 3.14 3.23 3.24 3.14 2.91 2.66 2.45 2.56 2.48 2.08 1.77 1.54 1.29 1.29 1.33 1.41 1.51 1.56 1.64 1.74 1.86 1.97 1.98
1.67 1.65 1.39 1.27 1.37 1.31 1.42 1.45 1.53 1.61 1.73 2.00 2.14 2.18 2.45 2.77 3.14 3.17 3.24 3.03 2.78 2.73 2.82 2.81 2.86 2.59 1.99 1.63 1.57 1.37 1.43 1.55 1.62 1.68 1.75 1.80 1.96 2.13
1.58 1.63 1.61 1.56 1.47 1.51 1.54 1.46 1.34 1.37 1.42 1.38 1.49 1.76 1.98 2.26 2.66 2.81 3.08 3.25 3.07 2.96 3.00 3.04 3.07 3.28 2.74 2.17 2.03 1.74 1.66 1.69 1.75 1.76 1.79 1.86 1.94 2.05
1.60 1.64 1.63 1.56 1.56 1.54 1.52 1.51 1.38 1.32 1.32 1.33 1.34 1.50 1.74 1.87 2.17 2.50 2.79 3.01 3.07 3.13 3.22 3.29 3.19 3.34 3.59 3.10 2.41 2.07 1.80 1.72 1.75 1.80 1.84 1.94 2.02 2.05
1.68 1.68 1.60 1.52 1.61 1.51 1.37 1.43 1.42 1.46 1.51 1.47 1.48 1.53 1.57 1.71 2.00 2.24 2.51 2.82 2.86 2.94 2.80 2.84 2.86 3.01 3.42 3.54 3.11 2.46 2.03 1.88 1.76 1.71 1.73 1.85 2.02 1.87
1.73 1.76 1.74 1.66 1.39 1.31 1.29 1.31 1.41 1.50 1.57 1.60 1.61 1.66 1.76 1.80 1.84 2.01 2.29 2.56 2.66 2.48 2.28 2.48 2.67 2.81 2.87 2.96 3.07 2.95 2.53 2.22 2.02 1.85 1.80 1.79 1.83 1.78
2.00 1.99 1.95 1.77 1.47 1.35 1.26 1.32 1.44 1.40 1.39 1.52 1.52 1.50 1.59 1.68 1.77 1.97 2.17 2.30 2.37 2.36 2.37 2.54 2.66 2.69 2.80 2.80 2.79 2.81 2.79 2.62 2.44 2.31 2.24 2.23 2.03 1.94
2.20 2.23 2.11 1.88 1.61 1.40 1.34 1.34 1.32 1.26 1.27 1.36 1.34 1.30 1.37 1.47 1.58 1.79 2.01 2.21 2.25 2.17 2.20 2.34 2.47 2.51 2.66 2.71 2.59 2.48 2.56 2.65 2.63 2.60 2.63 2.60 2.42 2.24
2.33 2.27 2.17 1.97 1.70 1.53 1.45 1.36 1.26 1.30 1.33 1.30 1.32 1.35 1.45 1.57 1.68 1.77 1.95 2.12 2.28 2.20 2.15 2.20 2.30 2.48 2.47 2.32 2.25 2.07 2.07 2.18 2.34 2.50 2.69 2.89 2.90 2.78
2.45 2.30 2.19 1.98 1.79 1.69 1.61 1.52 1.46 1.44 1.38 1.33 1.38 1.40 1.44 1.52 1.60 1.65 1.77 1.85 1.91 1.92 1.99 2.10 2.28 2.44 2.44 2.36 2.21 1.97 1.92 1.87 1.93 2.24 2.57 2.79 2.78 2.62
1.93 1.86 1.91 1.84 1.75 1.68 1.64 1.57 1.51 1.45 1.42 1.41 1.42 1.41 1.40 1.42 1.51 1.62 1.73 1.75 1.73 1.74 1.84 1.96 2.21 2.46 2.49 2.29 1.94 1.80 1.78 1.75 1.78 2.02 2.21 2.30 2.25 2.12
1.64 1.65 1.61 1.59 1.56 1.55 1.55 1.50 1.43 1.42 1.48 1.51 1.47 1.49 1.52 1.51 1.51 1.63 1.76 1.82 1.76 1.75 1.86 2.03 2.20 2.34 2.31 2.06 1.80 1.56 1.59 1.65 1.80 1.97 2.05 2.01 1.88 1.73
1.53 1.58 1.59 1.57 1.56 1.58 1.61 1.56 1.53 1.54 1.58 1.61 1.62 1.65 1.70 1.70 1.71 1.72 1.79 1.85 1.81 1.80 1.88 2.00 2.05 2.09 2.10 2.00 1.88 1.67 1.45 1.54 1.65 1.76 1.83 1.86 1.75 1.58
1.62 1.68 1.70 1.71 1.72 1.74 1.73 1.70 1.69 1.65 1.61 1.66 1.68 1.70 1.71 1.74 1.82 1.82 1.86 1.93 1.87 1.80 1.76 1.76 1.85 2.01 2.16 2.39 2.23 1.86 1.65 1.59 1.64 1.69 1.78 1.89 1.87 1.81
1.61 1.66 1.71 1.75 1.80 1.80 1.74 1.70 1.71 1.70 1.67 1.68 1.66 1.66 1.69 1.68 1.71 1.78 1.80 1.82 1.79 1.74 1.69 1.74 1.97 2.20 2.29 2.35 2.19 1.99 1.91 1.84 1.81 1.78 1.71 1.64 1.66 1.65
1.64 1.69 1.69 1.65 1.65 1.62 1.56 1.54 1.61 1.67 1.71 1.71 1.66 1.64 1.65 1.64 1.65 1.74 1.80 1.81 1.81 1.82 1.83 1.89 1.99 2.11 2.17 2.21 2.26 2.20 2.04 1.96 1.95 1.92 1.80 1.59 1.29 1.14